www.pogodaiklimat.ru

Погода и климат >> Архив погоды >> Финляндия >> Хельсинки Кайсаниеми


ПОГОДА в Хельсинки Кайсаниеми

  • Прогноз погоды в Хельсинки Кайсаниеми
  • Монитор погоды в Хельсинки Кайсаниеми

АРХИВ ПОГОДЫ в Хельсинки Кайсаниеми

Время (UTC), дата Ветер
(напр.,м/с)
 
Видим.   Явления Облачность Т
(С)
Тd
(С)
f
(%)
Тe
(С)
Тes
(С)
Комфортность P
(гПа)
Po
(гПа)
Тmin
(С)
Tmax
(С)
R
(мм)
R24
(мм)
S
(см)
15 14.07 ЮЗ 3-5
{6}
50 км 1/0 2000 м
[]
+17.1 +6.3 49 +17 +21 1011.8 1011.4
18 14.07 ЮЗ 4-5
{5}
50 км 1/1 2000 м
[]
+16.7 +8.0 56 +16 +16 1011.8 1011.3 +15.4 +18.1
21 14.07 З 3-4
{4}
50 км 6/1 1500 м
[]
+15.2 +11.4 78 +15 +15 1011.9 1011.5
00 15.07 З 2-3
{3}
50 км 9/0 2000 м
[]
+15.2 +12.5 84 +15 +15 1011.3 1010.9
03 15.07 В 1-2
{2}
30 км 1/0 2000 м
[]
+13.3 +12.7 96 +13 +14 1010.7 1010.2
06 15.07 Ю 2-4
{4}
45 км 6/6 200 м
[]
+16.9 +14.1 84 +17 +19 1010.3 1009.9 +12.8 +17.3
09 15.07 Ю 5-6
{6}
40 км 6/1 1000 м
[]
+17.2 +13.7 80 +17 +21 1010.1 1009.7
12 15.07 ЮЗ 4-6
{8}
40 км в посл. час дождь {ливн. осадки} 9/1 1500 м
[]
+18.0 +11.1 64 +18 +22 1009.7 1009.3
15 15.07 Ю 4-5
{6}
50 км ясно +18.6 +8.4 51 +19 +22 1008.9 1008.5
18 15.07 ЮВ 3-4
{6}
50 км слаб. ливневой дождь 9/9 2000 м
[]
+16.5 +11.1 70 +16 +16 1008.1 1007.7 +16.5 +19.2
21 15.07 ЮВ 3-4
{6}
50 км в посл. час дождь {ливн. осадки} 6/1 1500 м
[]
+16.2 +13.8 86 +16 +16 1007.2 1006.8
00 16.07 Ю 4-6
{6}
50 км {ливн. осадки, дождь} 4/4 2000 м
[]
+15.5 +12.8 84 +15 +15 1006.4 1006.0
03 16.07 Ю 4-6
{7}
40 км 9/1 600 м
[]
+15.6 +13.1 85 +15 +15 1006.4 1006.0
06 16.07 ЮВ 4-5
{7}
25 км морось {дождь} 9/1 1000 м
[]
+15.3 +13.2 87 +14 +16 1006.4 1005.9 +14.9 +16.6 0.5
09 16.07 В 3-6
{8}
35 км слаб. ливневой дождь 6/4 1500 м
[]
+17.0 +14.6 86 +17 +22 1007.0 1006.6 0.1
12 16.07 ЮВ 6-9
{11}
40 км {ливн. осадки, дождь} 6/4 1500 м
[]
+18.5 +13.8 74 +19 +21 1007.2 1006.8
15 16.07 В 3-4
{5}
30 км в посл. час дождь {ливн. осадки} 9/6 1500 м
[]
+15.2 +13.2 88 +14 +15 1008.3 1007.9 0.6
18 16.07 В 2-3
{4}
50 км {ливн. осадки, дождь} 1/0
[]
+15.7 +12.6 82 +16 +16 1008.9 1008.4 +13.9 +20.0 4
21 16.07 СВ 3-6
{6}
50 км ясно +14.4 +12.3 87 +13 +13 1008.9 1008.5
00 17.07 СВ 3-5
{5}
45 км ясно +13.8 +11.5 86 +13 +13 1009.2 1008.7
03 17.07 СВ 2-5
{5}
45 км ясно +13.3 +10.3 82 +13 +13 1009.3 1008.9
06 17.07 В 2-3
{4}
45 км ясно +18.4 +11.6 65 +19 +25 1009.5 1009.1 +13.0 +18.9
09 17.07 ЮВ 4-6
{6}
40 км ясно +22.3 +11.6 51 +25 +33 комфорт 1009.5 1009.0
12 17.07 ЮВ 3-4
{6}
40 км в посл. час дождь {ливн. осадки} 1/0 600 м
[]
+21.0 +11.8 56 +24 +33 комфорт 1009.8 1009.3
15 17.07 С 2-3
{5}
50 км {ливн. осадки, дождь} 1/0
[]
+19.8 +11.1 57 +22 +26 комфорт 1010.3 1009.8
18 17.07 З 1-1
{4}
50 км {ливн. осадки, дождь} 4/4
[]
+18.0 +10.5 62 +19 +19 1010.4 1010.0 +18.0 +22.9
21 17.07 С 3-5
{6}
50 км ясно +16.1 +12.4 79 +16 +16 1010.4 1010.0
00 18.07 С 3-4
{5}
50 км ясно +14.5 +12.0 85 +14 +14 1010.6 1010.2
03 18.07 -5
{5}
50 км ясно +13.8 +11.6 87 1010.6 1010.2
06 18.07 С 4-5
{6}
45 км ясно +18.8 +12.1 65 +19 +23 1010.5 1010.1 +12.7 +18.8
09 18.07 -7
{8}
28 км ясно +23.0 +12.1 50 1010.1 1009.6
12 18.07 СЗ 6-10
{11}
40 км 1/0 2000 м
[]
+24.1 +9.7 40 +25 +29 комфорт 1009.6 1009.1
15 18.07 С 6-9
{10}
40 км ясно +24.0 +8.5 37 +25 +26 комфорт 1009.2 1008.8
18 18.07 С 4-8
{8}
50 км ясно +21.6 +9.0 44 +23 +23 комфорт 1009.2 1008.8 +18.8 +24.7
21 18.07 СЗ 3-6
{7}
50 км ясно +17.7 +8.7 56 +18 +18 1009.7 1009.3
00 19.07 С 3-6
{7}
50 км ясно +15.7 +9.9 68 +15 +15 1010.0 1009.5
03 19.07 С 4-6
{7}
50 км ясно +15.2 +10.0 71 +14 +14 1010.3 1009.8
06 19.07 С 4-9
{9}
50 км ясно +19.8 +12.8 64 +22 +25 комфорт 1009.9 1009.5 +14.7 +21.6
09 19.07 СЗ 9-12
{12}
35 км ясно +22.4 +10.8 48 +24 +26 комфорт 1009.7 1009.3
12 19.07 С 5-10
{10}
35 км 1/0 1500 м
[]
+24.3 +8.7 37 +25 +31 комфорт 1009.8 1009.3
15 19.07 С 5-8
{10}
45 км 4/0 2000 м
[]
+24.4 +10.0 40 +25 +27 комфорт 1010.0 1009.5
18 19.07 Ю 3-4
{6}
45 км 9/9 2000 м
[]
+20.2 +13.4 65 +23 +23 комфорт 1010.4 1010.0 +19.8 +25.0
21 19.07 З 1-2
{3}
50 км ясно +16.4 +14.1 86 +17 +17 1011.1 1010.7
00 20.07 С 3-4
{4}
50 км ясно +15.3 +9.7 69 +15 +15 1012.0 1011.6
03 20.07 СЗ 3-3
{4}
50 км ясно +14.0 +10.2 78 +13 +13 1012.9 1012.5
06 20.07 С 3-5
{6}
40 км ясно +21.2 +12.8 59 +23 +28 комфорт 1013.6 1013.2 +13.1 +21.2
09 20.07 С 4-6
{8}
35 км 1/0 1500 м
[]
+24.0 +11.4 45 +25 +33 комфорт 1014.2 1013.8
12 20.07 ЮЗ 5-7
{7}
35 км 6/0 1500 м
[]
+23.3 +11.8 48 +26 +30 жарко 1015.0 1014.6
15 20.07 ЮЗ 5-7
{8}
40 км ясно +23.0 +12.0 50 +26 +28 жарко 1015.1 1014.6
18 20.07 ЮЗ 2-4
{5}
45 км ясно +20.3 +15.1 72 +24 +24 комфорт 1015.3 1014.8 +20.3 +25.1
21 20.07 штиль 0
{1}
28 км ясно +16.7 +15.5 93 +17 +17 1016.3 1015.8
00 21.07 С 1-1
{1}
9000 м дымка ясно +15.6 +15.2 97 +16 +16 1016.7 1016.3
03 21.07 СВ 1-2
{2}
35 км ясно +14.6 +14.2 97 +15 +15 1016.8 1016.4
06 21.07 ЮВ 2-3
{3}
40 км {дымка} ясно +22.3 +13.8 59 +25 +31 комфорт 1017.4 1017.0 +14.2 +22.4
09 21.07 ЮВ 3-4
{5}
35 км ясно +23.9 +12.4 49 +26 +36 жарко 1017.4 1017.0
12 21.07 Ю 4-6
{6}
35 км ясно +24.2 +11.8 46 +26 +34 жарко 1017.4 1016.9

 

Местоположение метеостанции Хельсинки Кайсаниеми (Финляндия): широта 60.18 долгота 24.94 высота над уровнем моря 4 м.

В архиве по умолчанию представлена погода в Хельсинки Кайсаниеми за последнюю неделю. Архивные данные за месяц целиком и за предыдущие месяцы, начиная с января 2011 года, Вы можете получить, выбрав интересующий диапазон дат из раскрывающегося списка и нажав кнопку "Ввод!".


*Определитесь, кто Вы:
робот инопланетянин человек

Внимание! Время в таблицах - всемирное. Для получения местного времени необходимо прибавить поправку, которая равна 1 ч.

Смотрите также архив погоды в соседних городах и на ближайших метеорологических станциях:

Погода в Хельсинки университете (Финляндия) (2 км)
Погода в Эспо Тапиола (Финляндия) (8 км)
Погода на Острове Хармая (Финляндия) (9 км)
Погода в Хельсинки (Финляндия) (17 км)
Погода в Эспо Нууксио (Финляндия) (24 км)
Погода на Хельсинском маяке (Финляндия) (26 км)
Погода в Килпилахти (Финляндия) (36 км)
Погода на Эмасало (Финляндия) (38 км)
Погода в Вихти (Финляндия) (40 км)
Погода в Нурмиярви (Финляндия) (40 км)

Пояснения к столбцам:

Ветер - указаны скорость ветра в м/с - средняя за 10 мин, порывы в срок и между сроками (в фигурных скобках) и направление, откуда дует ветер: С - северный, СВ - северо-восточный, В - восточный, ЮВ - юго-восточный, Ю - южный, ЮЗ - юго-западный, З - западный, СЗ - северо-западный.
Видимость - горизонтальная дальность видимости в метрах или километрах. При видимости от 1 до 10 км при отсутствии осадков обычно наблюдается дымка, при ухудшении видимости до 1 км и менее - туман. В сухую погоду видимость может ухудшаться дымом, пылью или мглою.
Явления - указаны атмосферные явления, наблюдавшиеся в срок или в последний час перед сроком; фигурными скобками обозначены явления, наблюдавшиеся между сроками (за 1-3 часа до срока); квадратными скобками обозначены град или гололедные отложения с указанием их диаметра в мм.
Облачность - указаны через наклонную черту общая и нижняя облачность в баллах и высота нижней границы облаков в метрах; квадратными скобками обозначены формы облаков: Ci - перистые, Cs - перисто-слоистые, Cc - перисто-кучевые, Ac - высококучевые, As - высокослоистые, Sc - слоисто-кучевые, Ns - слоисто-дождевые, Cu - кучевые, Cb - кучево-дождевые. Подробнее классификацию облаков см. в Атласе облаков (PDF).
T - Температура воздуха - температура, измеренная на высоте 2 м над землей.
Td - Температура точки росы - температура, при понижении до которой содержащийся в воздухе водяной пар достигнет насыщения.
f - Относительная влажность воздуха - влажноcть воздуха, измеренная на высоте 2 м над землей.
Te - Эффективная температура - температура, которую ощущает одетый по сезону человек в тени. Характеристика душности погоды. При расчете учитывается влияние влажности воздуха и скорости ветра на теплоощущения человека.
Tes - Эффективная температура на солнце - температура, которую ощущает человек, с поправкой на солнечный нагрев. Характеристика знойности погоды. Зависит от высоты солнца над горизонтом, облачности и скорости ветра. Ночью, в пасмурную погоду, а также при ветре 12 м/с и более поправка равна нулю.
P - Атмосферное давление - приведенное к уровню моря атмосферное давление.
Po - Атмосферное давление - измеренное на уровне метеостанции атмосферное давление.
Tmin - Минимальная температура - минимум температуры воздуха на высоте 2 м над землей.
Tmax - Максимальная температура - максимум температуры воздуха на высоте 2 м над землей.
R - Количество осадков - Количество выпавших осадков за период времени, мм. При наведении курсора мыши на число - период времени, за который выпало указанное количество осадков.
R24 - Количество осадков - Количество выпавших осадков за 24 часа, мм.
S - Снежный покров - Высота снежного покрова, см. При наведении курсора мыши на число - состояние снежного покрова и степень покрытия местности в баллах.